EN

Hourly Weather Barnala

Today, 27 January, Wednesday

Time Temperature Precipitation Wind Pressure Humidity
00:00 +9°C° 0 mm 1 mps 741 mmHg 55%
01:00 +9°C° 0 mm 1 mps 741 mmHg 57%
02:00 +8°C° 0 mm 1 mps 741 mmHg 59%
03:00 +8°C° 0 mm 1 mps 741 mmHg 60%
04:00 +8°C° 0 mm 1 mps 740 mmHg 60%
05:00 +7°C° 0 mm 1 mps 740 mmHg 55%
06:00 +8°C° 0 mm 1 mps 741 mmHg 53%
07:00 +8°C° 0 mm 1 mps 741 mmHg 51%
08:00 +9°C° 0 mm 1 mps 742 mmHg 49%
09:00 +12°C° 0 mm 2 mps 742 mmHg 40%
10:00 +16°C° 0 mm 2 mps 742 mmHg 31%
11:00 +19°C° 0 mm 2 mps 742 mmHg 22%
12:00 +21°C° 0 mm 2 mps 742 mmHg 19%
13:00 +22°C° 0 mm 3 mps 741 mmHg 17%
14:00 +24°C° 0 mm 3 mps 740 mmHg 15%
15:00 +21°C° 0 mm 2 mps 740 mmHg 18%
16:00 +20°C° 0 mm 2 mps 740 mmHg 21%
17:00 +18°C° 0 mm 1 mps 740 mmHg 24%
18:00 +15°C° 0 mm 1 mps 740 mmHg 27%
19:00 +13°C° 0 mm 1 mps 741 mmHg 31%
20:00 +11°C° 0 mm 1 mps 741 mmHg 34%
21:00 +10°C° 0 mm 1 mps 741 mmHg 38%
22:00 +10°C° 0 mm 1 mps 741 mmHg 42%
23:00 +9°C° 0 mm 1 mps 741 mmHg 46%

Tomorrow, 28 January, Thursday

Time Temperature Precipitation Wind Pressure Humidity
00:00 +9°C° 0 mm 1 mps 741 mmHg 48%
01:00 +8°C° 0 mm 1 mps 741 mmHg 50%
02:00 +8°C° 0 mm 1 mps 741 mmHg 52%
03:00 +7°C° 0 mm 1 mps 741 mmHg 53%
04:00 +7°C° 0 mm 1 mps 740 mmHg 54%
05:00 +7°C° 0 mm 1 mps 740 mmHg 55%
06:00 +7°C° 0 mm 1 mps 741 mmHg 53%
07:00 +8°C° 0 mm 1 mps 741 mmHg 51%
08:00 +8°C° 0 mm 0 mps 742 mmHg 49%
09:00 +13°C° 0 mm 1 mps 742 mmHg 41%
10:00 +16°C° 0 mm 1 mps 742 mmHg 32%
11:00 +20°C° 0 mm 2 mps 743 mmHg 23%
12:00 +21°C° 0 mm 2 mps 742 mmHg 20%
13:00 +23°C° 0 mm 2 mps 742 mmHg 18%
14:00 +24°C° 0 mm 3 mps 741 mmHg 15%
15:00 +21°C° 0 mm 3 mps 741 mmHg 18%
16:00 +20°C° 0 mm 2 mps 741 mmHg 20%
17:00 +18°C° 0 mm 2 mps 740 mmHg 23%
18:00 +16°C° 0 mm 2 mps 741 mmHg 28%
19:00 +13°C° 0 mm 2 mps 741 mmHg 32%
20:00 +11°C° 0 mm 1 mps 741 mmHg 37%
21:00 +10°C° 0 mm 1 mps 741 mmHg 41%
22:00 +9°C° 0 mm 1 mps 741 mmHg 45%
23:00 +8°C° 0 mm 0 mps 742 mmHg 49%

Day after tomorrow, 29 January, Friday

Time Temperature Precipitation Wind Pressure Humidity
00:00 +7°C° 0 mm 0 mps 741 mmHg 50%
01:00 +7°C° 0 mm 0 mps 741 mmHg 50%
02:00 +6°C° 0 mm 0 mps 741 mmHg 51%
03:00 +6°C° 0 mm 0 mps 741 mmHg 50%
04:00 +7°C° 0 mm 1 mps 741 mmHg 50%
05:00 +6°C° 0 mm 1 mps 741 mmHg 49%
06:00 +7°C° 0 mm 1 mps 741 mmHg 47%
07:00 +8°C° 0 mm 1 mps 742 mmHg 45%
08:00 +9°C° 0 mm 1 mps 743 mmHg 43%
09:00 +13°C° 0 mm 1 mps 743 mmHg 36%
10:00 +16°C° 0 mm 2 mps 743 mmHg 30%
11:00 +20°C° 0 mm 2 mps 743 mmHg 23%
12:00 +21°C° 0 mm 3 mps 742 mmHg 20%
13:00 +22°C° 0 mm 3 mps 742 mmHg 16%
14:00 +23°C° 0 mm 4 mps 742 mmHg 13%
15:00 +22°C° 0 mm 3 mps 741 mmHg 15%
16:00 +20°C° 0 mm 3 mps 741 mmHg 17%
17:00 +18°C° 0 mm 2 mps 740 mmHg 19%
18:00 +16°C° 0 mm 2 mps 741 mmHg 22%
19:00 +14°C° 0 mm 2 mps 741 mmHg 24%
20:00 +12°C° 0 mm 2 mps 742 mmHg 26%
21:00 +10°C° 0 mm 2 mps 741 mmHg 29%
22:00 +9°C° 0 mm 2 mps 741 mmHg 31%
23:00 +9°C° 0 mm 1 mps 741 mmHg 34%

30 January, Saturday

Time Temperature Precipitation Wind Pressure Humidity
00:00 +8°C° 0 mm 2 mps 741 mmHg 35%
01:00 +7°C° 0 mm 2 mps 741 mmHg 37%
02:00 +7°C° 0 mm 2 mps 741 mmHg 38%
03:00 +6°C° 0 mm 2 mps 740 mmHg 39%
04:00 +6°C° 0 mm 2 mps 740 mmHg 40%
05:00 +5°C° 0 mm 2 mps 740 mmHg 41%
06:00 +6°C° 0 mm 2 mps 740 mmHg 39%
07:00 +7°C° 0 mm 2 mps 740 mmHg 38%
08:00 +7°C° 0 mm 2 mps 741 mmHg 36%
09:00 +12°C° 0 mm 2 mps 741 mmHg 29%
10:00 +16°C° 0 mm 2 mps 741 mmHg 22%
11:00 +20°C° 0 mm 3 mps 741 mmHg 15%
12:00 +21°C° 0 mm 3 mps 741 mmHg 13%
13:00 +24°C° 0 mm 3 mps 740 mmHg 11%
14:00 +25°C° 0 mm 3 mps 740 mmHg 9%
15:00 +22°C° 0 mm 3 mps 739 mmHg 12%
16:00 +21°C° 0 mm 2 mps 739 mmHg 14%
17:00 +19°C° 0 mm 2 mps 739 mmHg 17%
18:00 +16°C° 0 mm 1 mps 739 mmHg 20%
19:00 +14°C° 0 mm 1 mps 740 mmHg 22%
20:00 +11°C° 0 mm 1 mps 740 mmHg 25%
21:00 +11°C° 0 mm 1 mps 740 mmHg 29%
22:00 +10°C° 0 mm 1 mps 740 mmHg 32%
23:00 +9°C° 0 mm 1 mps 741 mmHg 36%

31 January, Sunday

Time Temperature Precipitation Wind Pressure Humidity
00:00 +9°C° 0 mm 1 mps 740 mmHg 39%
01:00 +8°C° 0 mm 1 mps 740 mmHg 41%
02:00 +8°C° 0 mm 1 mps 740 mmHg 43%
03:00 +7°C° 0 mm 1 mps 740 mmHg 43%
04:00 +7°C° 0 mm 1 mps 740 mmHg 44%
05:00 +7°C° 0 mm 1 mps 739 mmHg 44%
06:00 +8°C° 0 mm 1 mps 740 mmHg 42%
07:00 +9°C° 0 mm 1 mps 741 mmHg 41%
08:00 +10°C° 0 mm 1 mps 741 mmHg 39%
09:00 +13°C° 0 mm 1 mps 741 mmHg 32%
10:00 +18°C° 0 mm 1 mps 742 mmHg 24%
11:00 +21°C° 0 mm 2 mps 742 mmHg 17%
12:00 +23°C° 0 mm 2 mps 742 mmHg 14%
13:00 +24°C° 0 mm 2 mps 741 mmHg 12%
14:00 +26°C° 0 mm 2 mps 741 mmHg 10%
15:00 +24°C° 0 mm 2 mps 741 mmHg 12%
16:00 +23°C° 0 mm 2 mps 741 mmHg 14%
17:00 +21°C° 0 mm 1 mps 740 mmHg 17%
18:00 +19°C° 0 mm 1 mps 741 mmHg 20%
19:00 +15°C° 0 mm 1 mps 741 mmHg 23%
20:00 +13°C° 0 mm 1 mps 742 mmHg 27%
21:00 +12°C° 0 mm 1 mps 742 mmHg 31%
22:00 +12°C° 0 mm 1 mps 742 mmHg 34%
23:00 +11°C° 0 mm 1 mps 742 mmHg 38%

1 February, Monday

Time Temperature Precipitation Wind Pressure Humidity
00:00 +11°C° 0 mm 1 mps 742 mmHg 39%
01:00 +10°C° 0 mm 1 mps 742 mmHg 41%
02:00 +9°C° 0 mm 0 mps 742 mmHg 42%
03:00 +10°C° 0 mm 1 mps 742 mmHg 43%
04:00 +9°C° 0 mm 1 mps 742 mmHg 44%
05:00 +9°C° 0 mm 1 mps 741 mmHg 45%
06:00 +10°C° 0 mm 1 mps 742 mmHg 43%
07:00 +11°C° 0 mm 1 mps 742 mmHg 42%
08:00 +12°C° 0 mm 1 mps 743 mmHg 41%
09:00 +16°C° 0 mm 1 mps 743 mmHg 33%
10:00 +19°C° 0 mm 2 mps 743 mmHg 25%
11:00 +24°C° 0 mm 2 mps 743 mmHg 17%
12:00 +25°C° 0 mm 3 mps 743 mmHg 15%
13:00 +27°C° 0 mm 3 mps 742 mmHg 13%
14:00 +28°C° 0 mm 4 mps 742 mmHg 11%
15:00 +27°C° 0 mm 3 mps 741 mmHg 13%
16:00 +25°C° 0 mm 3 mps 741 mmHg 15%
17:00 +23°C° 0 mm 2 mps 741 mmHg 17%
18:00 +20°C° 0 mm 2 mps 741 mmHg 21%
19:00 +17°C° 0 mm 2 mps 741 mmHg 26%
20:00 +15°C° 0 mm 2 mps 742 mmHg 30%
21:00 +14°C° 0 mm 2 mps 742 mmHg 32%
22:00 +13°C° 0 mm 1 mps 742 mmHg 34%
23:00 +13°C° 0 mm 1 mps 742 mmHg 36%
Show more

We Need Your Consent

Meteoprog and our Service Providers may store and access personal data such as cookies, device identifiers or other similar technologies on your device and process such data to personalise content and ads, as well as provide social media features and to analyse the traffic.

  • Store and/or access information on your device

    Cookies, device identifiers or other information can be stored or accessed on your device for the purposes indicated above.

  • Personalised ads and content, ad and content measurement, audience insights, and products development

    Ads and content can be personalised based on a profile. More data can be added to better personalise ads and content. Ad and content performance can be measured. Insights about the audience who saw the ads and content can be derived. Such data can be used to develop or improve user’s experience, systems and software.

By clicking ‘I Agree’ you will allow the use of indicated cookies, device identifiers, web beacons or other similar technologies. Your settings can be changed in the browser on your device.

For certain purposes, legitimate interests may be relied on, rather than consent. You can read more about this in our Privacy and Cookie Policy.